TimeMDT,TemperatureF,Dew PointF,Humidity,Sea Level PressureIn,VisibilityMPH,Wind Direction,Wind SpeedMPH,Gust SpeedMPH,PrecipitationIn,Events,Conditions,WindDirDegrees,DateUTC
12:53 AM,46.0,32.0,58,29.85,10.0,East,3.5,-,N/A,,Mostly Cloudy,90,2013-04-07 06:53:00
1:53 AM,44.1,32.0,63,29.84,10.0,NE,8.1,-,N/A,,Scattered Clouds,40,2013-04-07 07:53:00
2:53 AM,44.1,33.1,65,29.82,10.0,South,3.5,-,N/A,,Partly Cloudy,180,2013-04-07 08:53:00
3:53 AM,43.0,32.0,65,29.81,10.0,Calm,Calm,-,N/A,,Overcast,0,2013-04-07 09:53:00
4:53 AM,45.0,34.0,65,29.81,10.0,SSE,4.6,-,N/A,,Overcast,160,2013-04-07 10:53:00
5:53 AM,43.0,34.0,71,29.81,10.0,Calm,Calm,-,N/A,,Overcast,0,2013-04-07 11:53:00
6:53 AM,43.0,34.0,71,29.81,10.0,East,5.8,-,N/A,,Overcast,100,2013-04-07 12:53:00
7:53 AM,46.0,35.1,66,29.82,10.0,ESE,10.4,-,N/A,,Mostly Cloudy,110,2013-04-07 13:53:00
8:53 AM,50.0,35.1,57,29.81,10.0,ESE,17.3,-,N/A,,Partly Cloudy,120,2013-04-07 14:53:00
9:53 AM,53.1,35.1,50,29.80,10.0,SE,6.9,-,N/A,,Overcast,140,2013-04-07 15:53:00
10:53 AM,57.9,34.0,41,29.79,10.0,South,9.2,-,N/A,,Clear,170,2013-04-07 16:53:00
11:53 AM,60.1,28.0,30,29.77,10.0,WSW,4.6,-,N/A,,Clear,240,2013-04-07 17:53:00
12:53 PM,64.9,28.9,26,29.72,10.0,Variable,4.6,-,N/A,,Clear,0,2013-04-07 18:53:00
1:53 PM,66.9,21.9,18,29.67,10.0,West,17.3,31.1,N/A,,Scattered Clouds,260,2013-04-07 19:53:00
2:53 PM,66.9,21.9,18,29.65,10.0,WSW,19.6,27.6,N/A,,Mostly Cloudy,240,2013-04-07 20:53:00
3:53 PM,69.1,19.9,15,29.62,10.0,West,24.2,38.0,N/A,,Scattered Clouds,260,2013-04-07 21:53:00
4:53 PM,66.9,19.0,16,29.61,10.0,West,19.6,26.5,N/A,,Clear,280,2013-04-07 22:53:00
5:53 PM,66.0,18.0,16,29.59,10.0,WSW,6.9,23.0,N/A,,Clear,250,2013-04-07 23:53:00
6:53 PM,64.9,17.1,16,29.58,10.0,West,13.8,-,N/A,,Clear,280,2013-04-08 00:53:00
7:53 PM,61.0,17.1,18,29.57,10.0,West,6.9,-,N/A,,Clear,280,2013-04-08 01:53:00
8:53 PM,57.0,17.1,21,29.58,10.0,NNW,4.6,-,N/A,,Clear,330,2013-04-08 02:53:00
9:53 PM,53.1,17.1,24,29.59,10.0,Calm,Calm,-,N/A,,Clear,0,2013-04-08 03:53:00
10:53 PM,48.9,14.0,25,29.57,10.0,ENE,5.8,-,N/A,,Clear,70,2013-04-08 04:53:00
11:53 PM,51.1,17.1,26,29.53,10.0,ESE,4.6,-,N/A,,Clear,110,2013-04-08 05:53:00